User: anonymous   Login
Location: Pilipovskiye Korichintsy
(49.1833°N, 27.4667°E)
Time: 13:33:54
(UTC+00:00)
Language:

BREEZE-M DEB (TANK) - Orbit

View from above orbital plane
View from above orbital plane
View from above satellite
View from above satellite

Ground track
Ground track

The orbit data is extracted from the following two-line orbital elements,

1 33279U 08039B   20274.10778939  .00000021  00000-0  85902-4 0  9994
2 33279  45.9588 160.9095 4843467 185.1393 167.2041  5.71745690251767
Epoch (UTC): 30 September 2020 02:35:13
Eccentricity: 0.4843467
inclination: 45.9588°
perigee height: 434 km
apogee height: 13231 km
right ascension of ascending node: 160.9095°
argument of perigee: 185.1393°
revolutions per day: 5.71745690
mean anomaly at epoch: 167.2041°
orbit number at epoch: 25176

The dashed part of the orbit path shows where the satellite is in the earth's shadow,  

DLR